Time,TemperatureF,DewpointF,PressureIn,WindDirection,WindDirectionDegrees,WindSpeedMPH,WindSpeedGustMPH,Humidity,HourlyPrecipIn,Conditions,Clouds,dailyrainin,SoftwareType,DateUTC
2013-03-14 00:12:00,29.0,23.0,-100.00,North,355,14.0,21.0,78,-99.99,,,-99.99,,2013-03-14 04:12:00,
2013-03-14 00:22:00,29.0,24.0,-100.00,NW,320,9.0,19.0,81,-99.99,,,-99.99,,2013-03-14 04:22:00,
2013-03-14 00:32:00,29.0,24.0,-100.00,NW,320,9.0,19.0,81,-99.99,,,-99.99,,2013-03-14 04:32:00,
2013-03-14 00:42:00,29.0,24.0,-100.00,NNW,330,10.0,21.0,80,-99.99,,,-99.99,,2013-03-14 04:42:00,
2013-03-14 00:52:00,29.0,24.0,-100.00,NW,325,12.0,24.0,80,-99.99,,,-99.99,,2013-03-14 04:52:00,
2013-03-14 01:02:00,28.0,23.0,-100.00,NNW,335,11.0,22.0,81,-99.99,,,-99.99,,2013-03-14 05:02:00,
2013-03-14 01:13:00,28.0,23.0,-100.00,NW,325,12.0,21.0,80,-99.99,,,-99.99,,2013-03-14 05:13:00,
2013-03-14 01:22:00,28.0,23.0,-100.00,NNW,335,12.0,24.0,80,-99.99,,,-99.99,,2013-03-14 05:22:00,
2013-03-14 01:33:00,28.0,23.0,-100.00,NNW,330,11.0,19.0,80,-99.99,,,-99.99,,2013-03-14 05:33:00,
2013-03-14 01:42:00,28.0,23.0,-100.00,NNW,335,11.0,19.0,81,-99.99,,,-99.99,,2013-03-14 05:42:00,
2013-03-14 01:52:00,28.0,23.0,-100.00,NNW,345,12.0,19.0,82,-99.99,,,-99.99,,2013-03-14 05:52:00,
2013-03-14 02:02:00,28.0,24.0,-100.00,NW,315,12.0,19.0,83,-99.99,,,-99.99,,2013-03-14 06:02:00,
2013-03-14 02:12:00,28.0,24.0,-100.00,NNW,330,8.0,16.0,82,-99.99,,,-99.99,,2013-03-14 06:12:00,
2013-03-14 02:22:00,28.0,24.0,-100.00,NNW,330,8.0,16.0,82,-99.99,,,-99.99,,2013-03-14 06:22:00,
2013-03-14 02:33:00,28.0,23.0,-100.00,NNW,340,8.0,19.0,81,-99.99,,,-99.99,,2013-03-14 06:33:00,
2013-03-14 02:42:00,28.0,23.0,-100.00,NNW,345,10.0,16.0,81,-99.99,,,-99.99,,2013-03-14 06:42:00,
2013-03-14 02:52:00,28.0,23.0,-100.00,NW,325,9.0,16.0,81,-99.99,,,-99.99,,2013-03-14 06:52:00,
2013-03-14 03:02:00,28.0,23.0,-100.00,NW,325,9.0,16.0,81,-99.99,,,-99.99,,2013-03-14 07:02:00,
2013-03-14 03:12:00,28.0,23.0,-100.00,NNW,330,11.0,22.0,81,-99.99,,,-99.99,,2013-03-14 07:12:00,
2013-03-14 03:22:00,28.0,23.0,-100.00,NNW,335,8.0,19.0,81,-99.99,,,-99.99,,2013-03-14 07:22:00,
2013-03-14 03:32:00,28.0,23.0,-100.00,NNW,340,7.0,20.0,81,-99.99,,,-99.99,,2013-03-14 07:32:00,
2013-03-14 03:43:00,28.0,23.0,-100.00,North,0,6.0,16.0,81,-99.99,,,-99.99,,2013-03-14 07:43:00,
2013-03-14 03:52:00,28.0,23.0,-100.00,NNW,335,11.0,18.0,81,-99.99,,,-99.99,,2013-03-14 07:52:00,
2013-03-14 04:02:00,28.0,22.0,-100.00,NNW,335,9.0,19.0,79,-99.99,,,-99.99,,2013-03-14 08:02:00,
2013-03-14 04:12:00,27.0,22.0,-100.00,North,0,9.0,21.0,79,-99.99,,,-99.99,,2013-03-14 08:12:00,
2013-03-14 04:22:00,27.0,22.0,-100.00,North,0,9.0,16.0,79,-99.99,,,-99.99,,2013-03-14 08:22:00,
2013-03-14 04:32:00,27.0,22.0,-100.00,NNW,345,6.0,17.0,79,-99.99,,,-99.99,,2013-03-14 08:32:00,
2013-03-14 04:42:00,27.0,22.0,-100.00,NW,325,9.0,16.0,80,-99.99,,,-99.99,,2013-03-14 08:42:00,
2013-03-14 04:52:00,27.0,22.0,-100.00,NW,325,9.0,16.0,80,-99.99,,,-99.99,,2013-03-14 08:52:00,
2013-03-14 05:02:00,27.0,22.0,-100.00,North,0,6.0,14.0,81,-99.99,,,-99.99,,2013-03-14 09:02:00,
2013-03-14 05:12:00,26.0,21.0,-100.00,North,0,8.0,14.0,80,-99.99,,,-99.99,,2013-03-14 09:12:00,
2013-03-14 05:22:00,26.0,21.0,-100.00,NNW,345,7.0,13.0,80,-99.99,,,-99.99,,2013-03-14 09:22:00,
2013-03-14 05:32:00,26.0,21.0,-100.00,NNW,345,7.0,13.0,80,-99.99,,,-99.99,,2013-03-14 09:32:00,
2013-03-14 05:42:00,26.0,21.0,-100.00,NNW,345,7.0,11.0,81,-99.99,,,-99.99,,2013-03-14 09:42:00,
2013-03-14 05:52:00,26.0,21.0,-100.00,North,350,8.0,14.0,81,-99.99,,,-99.99,,2013-03-14 09:52:00,
2013-03-14 06:02:00,26.0,21.0,-100.00,NNW,330,4.0,12.0,81,-99.99,,,-99.99,,2013-03-14 10:02:00,
2013-03-14 06:12:00,26.0,21.0,-100.00,NNW,330,4.0,12.0,81,-99.99,,,-99.99,,2013-03-14 10:12:00,
2013-03-14 06:22:00,26.0,21.0,-100.00,NNW,340,9.0,14.0,79,-99.99,,,-99.99,,2013-03-14 10:22:00,
2013-03-14 06:32:00,26.0,21.0,-100.00,NNW,340,9.0,14.0,79,-99.99,,,-99.99,,2013-03-14 10:32:00,
2013-03-14 06:42:00,26.0,20.0,-100.00,NNW,335,8.0,14.0,79,-99.99,,,-99.99,,2013-03-14 10:42:00,
2013-03-14 06:52:00,26.0,21.0,-100.00,North,355,8.0,18.0,79,-99.99,,,-99.99,,2013-03-14 10:52:00,
2013-03-14 07:02:00,26.0,21.0,-100.00,North,355,10.0,16.0,80,-99.99,,,-99.99,,2013-03-14 11:02:00,
2013-03-14 07:12:00,26.0,21.0,-100.00,North,0,11.0,16.0,81,-99.99,,,-99.99,,2013-03-14 11:12:00,
2013-03-14 07:22:00,26.0,21.0,-100.00,North,350,7.0,19.0,81,-99.99,,,-99.99,,2013-03-14 11:22:00,
2013-03-14 07:33:00,26.0,21.0,-100.00,North,0,10.0,18.0,81,-99.99,,,-99.99,,2013-03-14 11:33:00,
2013-03-14 07:42:00,26.0,21.0,-100.00,North,350,11.0,16.0,81,-99.99,,,-99.99,,2013-03-14 11:42:00,
2013-03-14 07:52:00,26.0,21.0,-100.00,NW,325,7.0,15.0,82,-99.99,,,-99.99,,2013-03-14 11:52:00,
2013-03-14 08:02:00,26.0,21.0,-100.00,NNW,345,7.0,14.0,82,-99.99,,,-99.99,,2013-03-14 12:02:00,
2013-03-14 08:12:00,26.0,21.0,-100.00,NNW,335,7.0,16.0,83,-99.99,,,-99.99,,2013-03-14 12:12:00,
2013-03-14 08:22:00,26.0,21.0,-100.00,NNW,345,7.0,13.0,83,-99.99,,,-99.99,,2013-03-14 12:22:00,
2013-03-14 08:33:00,26.0,22.0,-100.00,NNW,345,8.0,16.0,83,-99.99,,,-99.99,,2013-03-14 12:33:00,
2013-03-14 08:42:00,26.0,22.0,-100.00,North,0,7.0,13.0,83,-99.99,,,-99.99,,2013-03-14 12:42:00,
2013-03-14 08:52:00,27.0,22.0,-100.00,NNW,330,6.0,12.0,83,-99.99,,,-99.99,,2013-03-14 12:52:00,
2013-03-14 09:02:00,27.0,22.0,-100.00,North,350,10.0,14.0,82,-99.99,,,-99.99,,2013-03-14 13:02:00,
2013-03-14 09:12:00,27.0,23.0,-100.00,North,0,10.0,14.0,83,-99.99,,,-99.99,,2013-03-14 13:12:00,
2013-03-14 09:22:00,27.0,23.0,-100.00,North,0,10.0,14.0,83,-99.99,,,-99.99,,2013-03-14 13:22:00,
2013-03-14 09:32:00,28.0,23.0,-100.00,NNW,345,8.0,13.0,82,-99.99,,,-99.99,,2013-03-14 13:32:00,
2013-03-14 09:42:00,28.0,23.0,-100.00,NNW,340,9.0,19.0,81,-99.99,,,-99.99,,2013-03-14 13:42:00,
2013-03-14 09:52:00,28.0,23.0,-100.00,NW,325,11.0,19.0,81,-99.99,,,-99.99,,2013-03-14 13:52:00,
2013-03-14 10:02:00,28.0,23.0,-100.00,NNW,345,7.0,17.0,81,-99.99,,,-99.99,,2013-03-14 14:02:00,
2013-03-14 10:12:00,28.0,24.0,-100.00,NNW,330,9.0,17.0,81,-99.99,,,-99.99,,2013-03-14 14:12:00,
2013-03-14 10:22:00,28.0,23.0,-100.00,North,0,9.0,20.0,81,-99.99,,,-99.99,,2013-03-14 14:22:00,
2013-03-14 10:32:00,28.0,23.0,-100.00,North,0,9.0,20.0,81,-99.99,,,-99.99,,2013-03-14 14:32:00,
2013-03-14 10:42:00,28.0,23.0,-100.00,North,0,9.0,20.0,81,-99.99,,,-99.99,,2013-03-14 14:42:00,
2013-03-14 10:52:00,28.0,23.0,-100.00,North,355,11.0,19.0,82,-99.99,,,-99.99,,2013-03-14 14:52:00,
2013-03-14 11:02:00,28.0,23.0,-100.00,North,0,10.0,19.0,82,-99.99,,,-99.99,,2013-03-14 15:02:00,
2013-03-14 11:12:00,28.0,23.0,-100.00,North,0,10.0,17.0,83,-99.99,,,-99.99,,2013-03-14 15:12:00,
2013-03-14 11:22:00,28.0,23.0,-100.00,NNW,330,9.0,20.0,82,-99.99,,,-99.99,,2013-03-14 15:22:00,
2013-03-14 11:33:00,28.0,23.0,-100.00,North,355,9.0,19.0,82,-99.99,,,-99.99,,2013-03-14 15:33:00,
2013-03-14 11:43:00,27.0,22.0,-100.00,NNW,330,11.0,17.0,81,-99.99,,,-99.99,,2013-03-14 15:43:00,
2013-03-14 11:52:00,27.0,23.0,-100.00,North,0,11.0,16.0,82,-99.99,,,-99.99,,2013-03-14 15:52:00,
2013-03-14 12:03:00,27.0,22.0,-100.00,North,0,12.0,16.0,82,-99.99,,,-99.99,,2013-03-14 16:03:00,
2013-03-14 12:12:00,28.0,23.0,-100.00,North,0,9.0,16.0,83,-99.99,,,-99.99,,2013-03-14 16:12:00,
2013-03-14 12:23:00,28.0,24.0,-100.00,North,0,4.0,12.0,82,-99.99,,,-99.99,,2013-03-14 16:23:00,
2013-03-14 12:32:00,28.0,24.0,-100.00,WNW,295,8.0,18.0,81,-99.99,,,-99.99,,2013-03-14 16:32:00,
2013-03-14 12:42:00,28.0,24.0,-100.00,WNW,295,8.0,18.0,81,-99.99,,,-99.99,,2013-03-14 16:42:00,
2013-03-14 12:52:00,28.0,23.0,-100.00,NNW,335,11.0,19.0,81,-99.99,,,-99.99,,2013-03-14 16:52:00,
2013-03-14 13:02:00,29.0,24.0,-100.00,WNW,295,7.0,18.0,81,-99.99,,,-99.99,,2013-03-14 17:02:00,
2013-03-14 13:12:00,28.0,23.0,-100.00,NNW,330,7.0,12.0,82,-99.99,,,-99.99,,2013-03-14 17:12:00,
2013-03-14 13:23:00,28.0,23.0,-100.00,NNW,340,10.0,15.0,81,-99.99,,,-99.99,,2013-03-14 17:23:00,
2013-03-14 13:33:00,29.0,23.0,-100.00,North,0,9.0,16.0,80,-99.99,,,-99.99,,2013-03-14 17:33:00,
2013-03-14 13:42:00,29.0,23.0,-100.00,NNW,335,10.0,18.0,79,-99.99,,,-99.99,,2013-03-14 17:42:00,
2013-03-14 13:52:00,28.0,23.0,-100.00,NNW,335,9.0,16.0,81,-99.99,,,-99.99,,2013-03-14 17:52:00,
2013-03-14 14:03:00,29.0,24.0,-100.00,North,355,11.0,16.0,81,-99.99,,,-99.99,,2013-03-14 18:03:00,
2013-03-14 14:12:00,30.0,24.0,-100.00,NNW,335,8.0,14.0,79,-99.99,,,-99.99,,2013-03-14 18:12:00,
2013-03-14 14:23:00,29.0,23.0,-100.00,North,0,12.0,19.0,78,-99.99,,,-99.99,,2013-03-14 18:23:00,
2013-03-14 14:33:00,30.0,24.0,-100.00,NW,320,9.0,14.0,79,-99.99,,,-99.99,,2013-03-14 18:33:00,
2013-03-14 14:43:00,30.0,24.0,-100.00,NW,320,13.0,17.0,78,-99.99,,,-99.99,,2013-03-14 18:43:00,
2013-03-14 14:52:00,29.0,24.0,-100.00,NW,325,13.0,17.0,79,-99.99,,,-99.99,,2013-03-14 18:52:00,
2013-03-14 15:03:00,30.0,24.0,-100.00,NNW,330,8.0,16.0,79,-99.99,,,-99.99,,2013-03-14 19:03:00,
2013-03-14 15:12:00,29.0,24.0,-100.00,NNW,340,12.0,17.0,79,-99.99,,,-99.99,,2013-03-14 19:12:00,
2013-03-14 15:23:00,29.0,24.0,-100.00,NNW,345,10.0,16.0,80,-99.99,,,-99.99,,2013-03-14 19:23:00,
2013-03-14 15:32:00,29.0,24.0,-100.00,NNW,335,11.0,18.0,81,-99.99,,,-99.99,,2013-03-14 19:32:00,
2013-03-14 15:42:00,30.0,25.0,-100.00,NNW,330,10.0,17.0,81,-99.99,,,-99.99,,2013-03-14 19:42:00,
2013-03-14 15:52:00,31.0,25.0,-100.00,North,0,8.0,16.0,79,-99.99,,,-99.99,,2013-03-14 19:52:00,
2013-03-14 16:02:00,31.0,25.0,-100.00,North,5,9.0,15.0,78,-99.99,,,-99.99,,2013-03-14 20:02:00,
2013-03-14 16:12:00,31.0,25.0,-100.00,NW,310,9.0,15.0,77,-99.99,,,-99.99,,2013-03-14 20:12:00,
2013-03-14 16:22:00,31.0,24.0,-100.00,NW,325,9.0,15.0,75,-99.99,,,-99.99,,2013-03-14 20:22:00,
2013-03-14 16:32:00,31.0,24.0,-100.00,NNW,330,9.0,19.0,74,-99.99,,,-99.99,,2013-03-14 20:32:00,
2013-03-14 16:42:00,32.0,24.0,-100.00,NW,320,9.0,16.0,73,-99.99,,,-99.99,,2013-03-14 20:42:00,
2013-03-14 16:52:00,33.0,24.0,-100.00,North,0,7.0,14.0,72,-99.99,,,-99.99,,2013-03-14 20:52:00,
2013-03-14 17:03:00,32.0,23.0,-100.00,North,355,11.0,15.0,70,-99.99,,,-99.99,,2013-03-14 21:03:00,
2013-03-14 17:12:00,32.0,24.0,-100.00,NW,320,10.0,16.0,71,-99.99,,,-99.99,,2013-03-14 21:12:00,
2013-03-14 17:22:00,33.0,24.0,-100.00,NNW,330,10.0,14.0,70,-99.99,,,-99.99,,2013-03-14 21:22:00,
2013-03-14 17:33:00,33.0,24.0,-100.00,NNW,345,7.0,15.0,69,-99.99,,,-99.99,,2013-03-14 21:33:00,
2013-03-14 17:43:00,33.0,25.0,-100.00,NNW,335,9.0,16.0,70,-99.99,,,-99.99,,2013-03-14 21:43:00,
2013-03-14 17:53:00,33.0,24.0,-100.00,North,0,11.0,16.0,68,-99.99,,,-99.99,,2013-03-14 21:53:00,
2013-03-14 18:03:00,34.0,24.0,-100.00,NW,320,9.0,15.0,67,-99.99,,,-99.99,,2013-03-14 22:03:00,
2013-03-14 18:13:00,34.0,25.0,-100.00,NNW,340,6.0,12.0,67,-99.99,,,-99.99,,2013-03-14 22:13:00,
2013-03-14 18:23:00,33.0,24.0,-100.00,NW,325,10.0,14.0,66,-99.99,,,-99.99,,2013-03-14 22:23:00,
2013-03-14 18:33:00,34.0,24.0,-100.00,NNW,340,9.0,16.0,66,-99.99,,,-99.99,,2013-03-14 22:33:00,
2013-03-14 18:42:00,34.0,24.0,-100.00,NW,320,6.0,14.0,65,-99.99,,,-99.99,,2013-03-14 22:42:00,
2013-03-14 18:52:00,34.0,24.0,-100.00,NW,315,6.0,13.0,65,-99.99,,,-99.99,,2013-03-14 22:52:00,
2013-03-14 19:03:00,34.0,24.0,-100.00,NNW,330,6.0,12.0,64,-99.99,,,-99.99,,2013-03-14 23:03:00,
2013-03-14 19:12:00,34.0,23.0,-100.00,NW,315,8.0,13.0,64,-99.99,,,-99.99,,2013-03-14 23:12:00,
2013-03-14 19:22:00,34.0,23.0,-100.00,NW,315,6.0,10.0,64,-99.99,,,-99.99,,2013-03-14 23:22:00,
2013-03-14 19:33:00,33.0,23.0,-100.00,NW,310,6.0,11.0,65,-99.99,,,-99.99,,2013-03-14 23:33:00,
2013-03-14 19:42:00,33.0,23.0,-100.00,NNW,330,6.0,12.0,65,-99.99,,,-99.99,,2013-03-14 23:42:00,
2013-03-14 19:53:00,33.0,23.0,-100.00,NW,325,3.0,7.0,67,-99.99,,,-99.99,,2013-03-14 23:53:00,
2013-03-14 20:02:00,32.0,23.0,-100.00,WNW,295,5.0,7.0,68,-99.99,,,-99.99,,2013-03-15 00:02:00,
2013-03-14 20:12:00,32.0,23.0,-100.00,WNW,295,5.0,7.0,68,-99.99,,,-99.99,,2013-03-15 00:12:00,
2013-03-14 20:23:00,31.0,23.0,-100.00,WNW,290,4.0,6.0,70,-99.99,,,-99.99,,2013-03-15 00:23:00,
2013-03-14 20:32:00,31.0,23.0,-100.00,WNW,290,4.0,6.0,71,-99.99,,,-99.99,,2013-03-15 00:32:00,
2013-03-14 20:42:00,31.0,23.0,-100.00,West,280,3.0,6.0,72,-99.99,,,-99.99,,2013-03-15 00:42:00,
2013-03-14 20:52:00,31.0,23.0,-100.00,West,275,3.0,6.0,72,-99.99,,,-99.99,,2013-03-15 00:52:00,
2013-03-14 21:02:00,31.0,23.0,-100.00,West,275,4.0,5.0,73,-99.99,,,-99.99,,2013-03-15 01:02:00,
2013-03-14 21:12:00,31.0,24.0,-100.00,West,270,3.0,5.0,74,-99.99,,,-99.99,,2013-03-15 01:12:00,
2013-03-14 21:22:00,31.0,24.0,-100.00,West,280,4.0,5.0,74,-99.99,,,-99.99,,2013-03-15 01:22:00,
2013-03-14 21:32:00,31.0,24.0,-100.00,West,280,4.0,5.0,75,-99.99,,,-99.99,,2013-03-15 01:32:00,
2013-03-14 21:42:00,31.0,24.0,-100.00,West,270,4.0,6.0,75,-99.99,,,-99.99,,2013-03-15 01:42:00,
2013-03-14 21:52:00,31.0,24.0,-100.00,West,270,5.0,7.0,76,-99.99,,,-99.99,,2013-03-15 01:52:00,
2013-03-14 22:03:00,31.0,25.0,-100.00,West,275,4.0,6.0,76,-99.99,,,-99.99,,2013-03-15 02:03:00,
2013-03-14 22:12:00,31.0,25.0,-100.00,West,265,4.0,7.0,77,-99.99,,,-99.99,,2013-03-15 02:12:00,
2013-03-14 22:22:00,31.0,25.0,-100.00,West,265,4.0,6.0,77,-99.99,,,-99.99,,2013-03-15 02:22:00,
2013-03-14 22:32:00,31.0,25.0,-100.00,West,260,3.0,6.0,78,-99.99,,,-99.99,,2013-03-15 02:32:00,
2013-03-14 22:42:00,31.0,25.0,-100.00,WSW,255,4.0,6.0,79,-99.99,,,-99.99,,2013-03-15 02:42:00,
2013-03-14 22:52:00,31.0,25.0,-100.00,WSW,250,4.0,6.0,80,-99.99,,,-99.99,,2013-03-15 02:52:00,
2013-03-14 23:02:00,30.0,25.0,-100.00,WSW,240,3.0,5.0,81,-99.99,,,-99.99,,2013-03-15 03:02:00,
2013-03-14 23:12:00,30.0,25.0,-100.00,WSW,245,2.0,4.0,81,-99.99,,,-99.99,,2013-03-15 03:12:00,
2013-03-14 23:22:00,30.0,25.0,-100.00,WSW,250,3.0,6.0,82,-99.99,,,-99.99,,2013-03-15 03:22:00,
2013-03-14 23:33:00,29.0,25.0,-100.00,SW,235,6.0,7.0,84,-99.99,,,-99.99,,2013-03-15 03:33:00,
2013-03-14 23:43:00,30.0,26.0,-100.00,SW,235,6.0,9.0,85,-99.99,,,-99.99,,2013-03-15 03:43:00,
2013-03-14 23:52:00,30.0,26.0,-100.00,WSW,240,6.0,8.0,86,-99.99,,,-99.99,,2013-03-15 03:52:00,